Flag for Slovakia Weather past 2 weeks in Prievidza, Slovakia

Now
42 °F

Quite cool.


Feels Like: N/A
Forecast: 38 / 46 °F
Wind: N/A

Location: Prievidza

Current Time: Dec 19, 2014 at 6:04:30 AM

Latest Report: Dec 19, 2014 at 5:00 AM


Visibility: 0 mi

Pressure: 30.04 "Hg

Humidity: 96%

Dew point: 41 °F

Location of PrievidzaLocation

Historic Weather in Prievidza — Graph

°F

Prievidza temperature yesterday

Maximum temperature yesterday: 43 °F (at 2:00 PM)
Minimum temperature yesterday: 35 °F (at 12:00 AM)
Average temperature yesterday: 39 °F

Past Weeks' High & Low Weather Summary

 TemperatureHumidityPressure
High51 °F (Dec 5, 2:00 PM)97% (Dec 15, 2:00 AM)30.34 "Hg (Dec 15, 2:00 AM)
Low28 °F (Dec 10, 8:00 PM)49% (Dec 10, 1:00 PM)29.87 "Hg (Dec 17, 3:00 AM)
Average39 °F83%30.10 "Hg
* Reported Dec 4 4:00 AM — Dec 19 4:00 AM, Prievidza, Weather by CustomWeather, © 2014

Note: Actual official high and low records may vary slightly from our data, if they occured in-between our weather recording intervals... More about our weather records

Advertising

Prievidza weather history for previous 24 hours

 ConditionsComfort  
Time TempWeatherWind HumidityBarometerVisibility
4:00 AM
Dec 19
42 °FLight rain. Overcast.N/A96%30.05 "Hg1 mi
3:00 AM41 °FLight rain. Overcast.No wind96%30.06 "Hg1 mi
2:00 AM42 °FLight rain. Overcast.N/A96%30.05 "Hg1 mi
1:00 AM41 °FDrizzle. Overcast.N/A94%30.05 "Hg1 mi
12:00 AM41 °FFog.N/A94%30.06 "Hg3 mi
11:00 PM
Dec 18
41 °FFog.No wind94%30.06 "Hg2 mi
10:00 PM41 °FFog.No wind93%30.07 "Hg2 mi
9:00 PM41 °FFog.1 mph93%30.07 "Hg2 mi
8:00 PM41 °FFog.No wind93%30.08 "Hg4 mi
7:00 PM41 °FFog.2 mph93%30.08 "Hg4 mi
6:00 PM42 °FFog.No wind93%30.08 "Hg5 mi
5:00 PM41 °FFog.N/A93%30.07 "Hg5 mi
4:00 PM41 °FFog.2 mph90%30.07 "Hg5 mi
3:00 PM43 °FOvercast.N/A88%30.06 "Hg7 mi
2:00 PM43 °FFog.2 mph88%30.05 "Hg6 mi
1:00 PM43 °FFog.3 mph89%30.05 "Hg6 mi
12:00 PM42 °FQuite cool.3 mph89%30.06 "HgN/A
11:00 AM41 °FQuite cool.2 mph95%30.06 "HgN/A
10:00 AM39 °FChilly.1 mph95%30.05 "HgN/A
9:00 AM38 °FFog.No wind95%30.03 "Hg2 mi
8:00 AM38 °FFog.No wind95%30.02 "Hg2 mi
7:00 AM38 °FFog.No wind95%30.00 "Hg2 mi
6:00 AM37 °FChilly.N/A95%29.98 "Hg3 mi
Weather by CustomWeather, © 2014

See weather overviewHow to use our weather pages